Sulaymaniyah International Airport
ORSU : now visible

Airfield :











YOU CAN JOIN US ON...

 
LOGIN :

Register | Disclaimer

   EN    FR    IT 

 









Legend :    VFR   Marginal VFR   IFR   Intensive IFR   Very Intensive IFR
Visi :
Ceiling :
>= 8 km
>= 3000ft
5 to 8 km
1000 to 3000 ft
1500m to 5 km
500 to 1000 ft
800 to 1500m
200 to 500 ft
< 800m
< 200 ft
Symbols :   Thunderstorms  Fog  Heavy snow  Heavy precipitations  Wind > 20 kt






- Airport Elevation : 2494 ft
- IATA code : OSO


ORSU - Sulaymaniyah International

CURRENT METAR :
  • 280700Z 13008KT 8000 NSC 33/03 Q1017

EXPIRED METARs :
  • 280600Z 15009KT 8000 NSC 30/05 Q1017

TAF TAF ORSU
Valid from the 28 at 06:00 until the 29 at 06:00 UTC


280500Z 2806/2906 VRB04KT CAVOK
BECMG 2810/2812 24010KT 9999 FEW045 SCT200
BECMG 2816/2818 32005KT CAVOK
ORBB FIR / Asia



MET'MAP, your aeronautical weather chart ! - Copyright ORBIFLY December 2007 - Disclaimer

ORBIFLY MET'MAP TEAM :

Programming & Development : Alexandra Zaïnal
Concept & original design : Baudouin d'Aumeries
Assistance for programming : Marc-Olivier Méhu
Technical & hardware support : Manuel Goepfert

Contact : metmap@orbifly.com




SOURCES & CREDITS :

   NOAA       Earth
Advisory